Zurück zum Katalog

STARLINK-30393

AktivKommunikationVLEO
NORAD 57866·PAYLOAD·🇺🇸 United States

Gestartet Sep 16, 2023 von Cape Canaveral Space Force Station

Loading…

Nächste Überflüge (nächste 24 Stunden)

TLE

AktuellSource: CelesTrak SupGP

Epoche: Sep 15, 2026, 02:45 UTC

1 57866C 23144C   26258.11506944  .00019436  00000+0  70393-3 0  2584
2 57866  43.0000 295.1798 0001341 266.1525 340.4330 15.27570807    18

Verfolge STARLINK-30393 in Echtzeit mit AllMySat

Download on the App Store